Location: *
(47.2969°N, 10.2930°E)
Time: 08:03:14
(UTC+00:00)

Cosmos 676 Rocket - Pass Details

Date: 09 April 2020
Orbit: 755 x 784 km, 74.0° (Epoch: 01 June)

Event Time Altitude Azimuth Distance (km) Brightness Sun altitude
Rises 19:06:20 0° 185° (S) 3,242 7.0 -11.4°
Reaches altitude 10° 19:08:46 10° 181° (S) 2,315 6.2 -11.8°
Maximum altitude 19:13:51 52° 106° (ESE) 952 4.1 -12.6°
Drops below altitude 10° 19:18:56 10° 31° (NNE) 2,313 6.5 -13.3°
Sets 19:21:21 0° 27° (NNE) 3,239 7.3 -13.7°
